SCP
0 0 0 0 0 0 0 0 0 0 0 0 0 0 0 0 0 0 0 0 0 0 0 0 0 0 0 0 0 0 0 0 0 0 0 0 0 0 0 0 0 0 0 0 0 0 0 0 0
0 0 0 0 0 0 0 0 0 0 0 0 0 0 0 0 0 0 0 0 0 0 0 0 0 0 0 0 0 0 0 0 0 0 0 0 0 0 0 0 0 0 0 0 0 0 0 0 0
0 0 0 0 0 0 0 0 0 0 0 0 0 0 0 0 0 0 0 0 0 0 0 0 0 0 0 0 0 0 0 0 0 0 0 0 0 0 0 0 0 0 0 0 0 0 0 0 0
0 0 0 0 0 0 0 0 0 0 0 0 0 0 0 0 0 0 0 0 0 0 0 0 0 0 0 0 0 0 0 0 0 0 0 0 0 0 0 0 0 0 0 0 0 0 0 0 0
0 0 0 0 0 0 0 0 0 0 0 0 0 0 0 0 0 0 0 0 0 0 0 0 0 0 0 0 0 0 0 0 0 0 0 0 0 0 0 0 0 0 0 0 0 0 0 0 0
0 0 0 0 0 0 0 0 0 0 0 0 0 0 0 0 0 0 0 0 0 0 0 0 0 0 0 0 0 0 0 0 0 0 0 0 0 0 0 0 0 0 0 0 0 0 0 0 0
0 0 0 0 0 0 0 0 0 0 0 0 0 0 0 0 0 0 0 0 0 0 0 0 0 0 0 0 0 0 0 0 0 0 0 0 0 0 0 0 0 0 0 0 0 0 0 0 0
0 0 0 0 0 0 0 0 0 0 0 0 0 0 0 0 0 0 0 0 0 0 0 0 0 0 0 0 0 0 0 0 0 0 0 0 0 0 0 0 0 0 0 0 0 0 0 0 0
0 0 0 0 0 0 0 0 0 0 0 0 0 0 0 0 0 0 0 0 0 0 0 0 0 0 0 0 0 0 0 0 0 0 0 0 0 0 0 0 0 0 0 0 0 0 0 0 0
0 0 0 0 0 0 0 0 0 0 0 0 0 0 0 0 0 0 0 0 0 0 0 0 0 0 0 0 0 0 0 0 0 0 0 0 0 0 0 0 0 0 0 0 0 0 0 0 0
0 0 0 0 0 0 0 0 0 0 0 0 0 0 0 0 0 0 0 0 0 0 0 0 0 0 0 0 0 0 0 0 0 0 0 0 0 0 0 0 0 0 0 0 0 0 0 0 0
0 0 0 0 0 0 0 0 0 0 0 0 0 0 0 0 0 0 0 0 0 0 0 0 0 0 0 0 0 0 0 0 0 0 0 0 0 0 0 0 0 0 0 0 0 0 0 0 0
0 0 0 0 0 0 0 0 0 0 0 0 0 0 0 0 0 0 0 0 0 0 0 0 0 0 0 0 0 0 0 0 0 0 0 0 0 0 0 0 0 0 0 0 0 0 0 0 0
0 0 0 0 0 0 0 0 0 0 0 0 0 0 0 0 0 0 0 0 0 0 0 0 0 0 0 0 0 0 0 0 0 0 0 0 0 0 0 0 0 0 0 0 0 0 0 0 0
0 0 0 0 0 0 0 0 0 0 0 0 0 0 0 0 0 0 0 0 0 0 0 0 0 0 0 0 0 0 0 0 0 0 0 0 0 0 0 0 0 0 0 0 0 0 0 0 0
0 0 0 0 0 0 0 0 0 0 0 0 0 0 0 0 0 0 0 0 0 0 0 0 0 0 0 0 0 0 0 0 0 0 0 0 0 0 0 0 0 0 0 0 0 0 0 0 0
0 0 0 0 0 0 0 0 0 0 0 0 0 0 0 0 0 0 0 0 0 0 0 0 0 0 0 0 0 0 0 0 0 0 0 0 0 0 0 0 0 0 0 0 0 0 0 0 0
0 0 0 0 0 0 0 0 0 0 0 0 0 0 0 0 0 0 0 0 0 0 0 0 0 0 0 0 0 0 0 0 0 0 0 0 0 0 0 0 0 0 0 0 0 0 0 0 0
0 0 0 0 0 0 0 0 0 0 0 0 0 0 0 0 0 0 0 0 0 0 0 0 0 0 0 0 0 0 0 0 0 0 0 0 0 0 0 0 0 0 0 0 0 0 0 0 0
0 0 0 0 0 0 0 0 0 0 0 0 0 0 0 0 0 0 0 0 0 0 0 0 0 0 0 0 0 0 0 0 0 0 0 0 0 0 0 0 0 0 0 0 0 0 0 0 0
0 0 0 0 0 0 0 0 0 0 0 0 0 0 0 0 0 0 0 0 0 0 0 0 0 0 0 0 0 0 0 0 0 0 0 0 0 0 0 0 0 0 0 0 0 0 0 0 0
0 0 0 0 0 0 0 0 0 0 0 0 0 0 0 0 0 0 0 0 0 0 0 0 0 0 0 0 0 0 0 0 0 0 0 0 0 0 0 0 0 0 0 0 0 0 0 0 0
0 0 0 0 0 0 0 0 0 0 0 0 0 0 0 0 0 0 0 0 0 0 0 0 0 0 0 0 0 0 0 0 0 0 0 0 0 0 0 0 0 0 0 0 0 0 0 0 0
0 0 0 0 0 0 0 0 0 0 0 0 0 0 0 0 0 0 0 0 0 0 0 0 0 0 0 0 0 0 0 0 0 0 0 0 0 0 0 0 0 0 0 0 0 0 0 0 0
0 0 0 0 0 0 0 0 0 0 0 0 0 0 0 0 0 0 0 0 0 0 0 0 0 0 0 0 0 0 0 0 0 0 0 0 0 0 0 0 0 0 0 0 0 0 0 0 0
0 0 0 0 0 0 0 0 0 0 0 0 0 0 0 0 0 0 0 0 0 0 0 0 0 0 0 0 0 0 0 0 0 0 0 0 0 0 0 0 0 0 0 0 0 0 0 0 0
0 0 0 0 0 0 0 0 0 0 0 0 0 0 0 0 0 0 0 0 0 0 0 0 0 0 0 0 0 0 0 0 0 0 0 0 0 0 0 0 0 0 0 0 0 0 0 0 0
0 0 0 0 0 0 0 0 0 0 0 0 0 0 0 0 0 0 0 0 0 0 0 0 0 0 0 0 0 0 0 0 0 0 0 0 0 0 0 0 0 0 0 0 0 0 0 0 0
0 0 0 0 0 0 0 0 0 0 0 0 0 0 0 0 0 0 0 0 0 0 0 0 0 0 0 0 0 0 0 0 0 0 0 0 0 0 0 0 0 0 0 0 0 0 0 0 0
0 0 0 0 0 0 0 0 0 0 0 0 0 0 0 0 0 0 0 0 0 0 0 0 0 0 0 0 0 0 0 0 0 0 0 0 0 0 0 0 0 0 0 0 0 0 0 0 0
Wind_Speed
12 9 6 3 3 1 6 4 6 5 6 6 3 5 11 11 8 7 3 5 4 12 13 10 10 11 10 9 8 8 9 10 11 12 13 13 14 14 15 15 15 15 16 16 16 15 15 14 14
8 7 4 3 3 4 5 6 8 8 6 2 1 7 11 8 8 7 5 3 4 11 12 10 10 11 10 9 8 8 8 9 10 11 12 12 13 14 14 14 15 15 15 15 15 15 14 13 13
7 5 3 3 3 4 6 7 9 7 3 1 4 8 7 6 7 5 3 2 5 8 10 11 10 10 10 8 8 7 8 9 10 10 11 12 12 13 13 14 14 15 15 15 15 15 14 13 13
4 3 3 3 5 8 8 7 7 8 4 1 5 9 6 6 4 4 3 4 6 6 9 11 9 9 9 9 8 8 8 8 8 9 10 11 11 11 12 13 14 15 15 15 15 15 14 14 13
3 3 3 0 6 6 7 7 2 4 5 2 3 8 6 4 6 6 5 6 7 6 8 9 6 6 8 8 8 8 7 8 8 8 8 10 10 10 11 12 13 14 14 15 15 15 14 14 14
3 3 3 3 6 5 5 3 2 3 7 3 4 8 6 6 6 5 6 8 9 8 7 6 5 3 4 6 7 8 8 7 7 7 7 8 9 10 11 11 12 13 13 14 14 14 14 14 13
3 3 5 1 7 4 5 2 2 2 6 5 5 7 7 5 3 4 6 8 8 7 6 5 3 1 3 4 5 6 7 7 7 7 7 7 8 8 9 10 11 12 12 12 12 13 13 13 13
4 3 4 3 4 6 6 3 3 4 6 4 7 5 6 3 1 3 6 7 7 6 6 4 3 2 0 3 5 5 5 6 6 6 6 7 7 8 9 9 10 11 11 11 11 11 11 12 12
2 2 4 2 0 5 8 5 3 2 5 6 6 5 4 1 2 4 4 5 6 6 5 4 4 3 3 1 4 6 5 5 5 6 7 6 4 6 6 8 9 10 10 9 9 8 7 7 8
2 2 3 5 6 3 7 5 6 4 5 6 6 6 4 3 3 4 5 6 6 5 5 4 4 3 3 2 1 3 4 4 3 3 5 4 3 4 6 9 9 9 8 8 7 5 3 2 3
2 3 4 4 8 5 4 2 2 2 2 3 6 8 5 6 6 6 7 6 5 5 6 6 5 3 2 1 1 1 2 2 2 3 2 2 3 4 5 4 4 4 5 3 3 2 3 4 3
3 1 3 3 4 3 1 1 1 0 5 5 7 7 6 6 6 6 6 5 5 6 6 6 6 2 0 1 2 3 3 3 4 5 5 3 3 4 4 3 3 3 2 3 2 2 4 4 4
4 1 1 3 2 2 3 2 2 4 7 6 6 5 6 6 6 6 5 5 6 6 6 6 6 3 2 3 3 5 5 6 6 6 6 6 5 5 5 5 5 5 4 4 4 4 4 4 4
4 2 2 4 5 3 3 4 4 5 9 7 6 6 6 6 4 5 5 5 6 6 6 6 7 5 6 6 6 6 7 7 7 7 8 8 7 6 6 7 6 5 4 4 4 4 4 3 3
2 3 5 7 7 5 3 6 8 7 10 8 6 6 5 5 4 5 5 5 5 5 5 5 6 7 9 9 9 8 7 8 8 7 9 10 9 8 8 7 7 5 5 5 4 4 4 4 4
4 4 5 7 9 6 5 8 4 10 10 8 8 8 6 5 5 5 5 5 5 5 5 5 6 8 10 10 9 8 8 8 8 7 8 10 10 9 8 7 6 5 5 5 5 4 4 4 4
5 6 8 5 8 7 7 7 5 6 7 8 8 8 8 7 6 6 5 5 5 5 5 6 7 8 9 10 9 9 9 9 7 7 7 8 9 9 8 7 6 6 5 5 4 5 4 5 5
6 7 7 6 9 8 8 8 6 8 8 8 9 8 8 8 7 6 6 5 5 5 5 6 6 7 8 8 8 8 9 8 7 7 8 9 8 9 8 7 8 7 6 6 5 5 5 5 5
9 8 8 5 5 5 8 10 9 11 10 10 9 9 9 8 8 7 6 5 5 5 5 5 6 6 5 5 5 6 6 6 7 8 9 9 9 9 8 7 7 7 7 8 8 5 6 7 6
10 10 9 7 5 3 6 11 9 11 13 12 12 11 11 10 9 8 7 6 6 5 5 5 5 5 6 6 5 5 6 7 6 6 8 9 9 9 9 8 7 7 7 9 9 7 5 6 8
9 10 9 8 2 4 4 9 12 11 12 12 11 10 12 14 12 10 9 7 6 6 5 5 5 7 8 8 7 8 6 5 6 6 6 7 8 8 9 9 8 7 7 7 8 7 8 5 6
9 7 9 7 6 5 7 7 8 10 12 13 11 9 10 12 12 11 9 9 7 6 5 5 6 7 7 7 7 8 7 6 5 5 5 7 8 8 8 8 8 7 6 7 7 7 6 6 5
3 4 1 3 5 7 6 10 8 7 9 13 13 11 9 11 12 12 10 9 8 7 6 6 6 6 6 7 8 10 9 8 7 6 7 7 6 7 8 7 7 7 6 6 7 7 7 5 4
7 4 2 0 3 8 11 14 11 10 13 11 16 15 12 12 12 11 9 9 8 7 6 6 7 6 7 8 8 9 11 11 10 7 7 5 4 5 7 7 6 6 5 6 6 6 6 5 5
6 5 2 4 5 10 9 12 10 5 5 7 13 15 14 13 13 12 12 10 9 8 7 7 8 7 7 8 8 9 9 10 10 8 7 6 4 4 5 6 5 5 5 5 5 5 5 5 5
10 9 9 8 7 6 5 11 7 3 4 4 5 12 14 14 12 13 12 10 10 9 9 8 8 8 8 8 8 8 8 6 6 7 7 6 5 5 5 5 5 5 5 5 4 4 4 4 4
8 9 8 3 1 4 9 8 4 1 1 3 7 12 14 15 13 13 12 11 10 10 9 9 10 9 8 8 8 8 7 7 7 7 7 6 5 5 6 5 5 5 4 4 4 3 3 3 3
4 6 4 6 6 8 10 11 9 9 13 10 11 14 15 15 14 13 13 11 10 9 8 9 9 9 8 8 7 7 7 7 7 7 7 7 6 5 6 5 5 4 4 3 3 2 3 3 3
8 6 7 6 6 6 8 9 4 13 13 15 16 16 18 18 17 15 13 11 11 9 8 9 9 8 8 8 7 8 7 7 7 7 7 7 6 6 6 5 4 4 3 2 2 2 2 2 2
9 11 12 9 8 8 8 9 2 2 5 12 14 14 15 15 14 13 13 12 11 11 10 9 9 9 9 8 8 8 8 7 7 7 7 7 7 6 6 5 4 4 3 2 1 1 0 1 2
Wind_Direction
301 281 279 279 267 123 85 76 81 85 76 62 32 54 66 48 50 85 74 35 81 118 128 137 132 128 122 118 113 112 112 112 109 106 102 97 92 86 81 75 70 66 62 57 53 48 43 39 37
305 310 281 251 257 120 102 105 81 68 81 112 103 87 85 70 66 86 75 46 90 119 133 140 134 130 126 124 121 118 115 113 111 109 106 100 95 89 84 79 73 68 63 58 53 50 46 42 40
280 273 276 268 325 80 109 102 98 98 110 162 85 50 55 38 42 61 56 83 105 114 128 129 139 135 132 132 129 124 121 118 116 114 113 108 101 96 91 85 79 72 65 59 55 52 48 45 44
292 248 241 260 68 49 97 103 118 126 120 28 104 85 75 31 39 62 62 64 93 106 116 128 141 141 143 142 138 133 128 124 121 121 121 117 110 105 99 92 86 79 71 64 58 55 51 48 47
233 264 256 23 83 74 70 81 98 131 116 88 78 98 84 53 51 68 61 52 77 77 95 127 128 138 149 150 146 143 140 133 131 128 127 125 120 115 107 99 92 84 76 69 63 57 54 52 49
268 276 272 179 116 109 104 109 190 117 103 81 84 106 97 58 38 44 55 52 58 56 61 95 99 107 143 151 154 154 151 147 146 142 137 136 132 127 118 110 102 93 84 76 68 62 58 55 50
310 296 294 312 119 140 120 151 218 123 112 70 3 101 120 82 15 53 67 65 60 57 53 51 66 144 163 171 167 162 162 160 158 155 149 144 141 137 128 121 114 104 94 84 75 68 64 58 52
328 303 283 298 146 155 130 141 39 11 91 59 15 74 114 88 303 102 90 80 69 57 50 42 25 11 207 185 184 174 172 170 167 165 162 161 157 147 141 133 127 117 106 96 86 77 73 66 57
301 288 274 279 203 136 132 153 112 19 90 76 55 68 86 117 160 141 130 105 86 71 49 30 10 1 344 301 168 173 175 179 177 177 181 177 177 160 150 144 137 129 120 108 96 88 88 85 68
290 284 332 15 14 86 138 181 148 176 158 129 110 102 106 92 92 99 78 65 55 54 52 25 6 356 334 326 158 175 170 168 183 175 176 189 172 139 136 137 140 134 127 116 103 92 83 63 65
272 302 32 33 28 17 122 169 97 247 201 76 119 117 103 91 73 71 67 59 41 35 42 18 359 336 319 321 331 74 98 101 81 56 86 111 103 108 113 125 130 126 129 114 110 86 52 54 45
293 29 2 53 52 353 65 146 170 15 88 74 76 103 109 96 83 66 61 51 43 39 28 10 343 325 323 14 31 55 71 69 58 42 40 61 80 85 94 94 96 91 81 79 74 63 61 60 52
258 146 132 81 111 313 339 282 246 129 122 112 107 103 100 92 98 96 80 71 56 40 25 3 345 352 82 78 60 62 63 66 59 45 38 47 66 72 73 71 66 59 53 53 47 44 45 47 43
4 333 207 184 188 192 229 254 234 157 139 140 143 129 111 98 80 89 68 60 62 46 26 10 9 33 71 75 71 64 65 65 60 50 43 48 60 69 72 67 59 53 48 54 52 47 40 37 29
305 280 246 206 194 195 201 251 225 157 147 159 163 140 128 116 104 85 81 67 69 57 40 31 32 52 71 72 72 68 65 67 62 54 48 51 58 67 71 68 59 47 42 49 48 38 36 28 14
224 243 248 204 174 150 175 250 203 138 156 176 175 158 155 137 121 98 90 83 79 73 63 55 63 70 75 77 75 73 68 68 63 57 55 56 61 67 71 70 63 53 48 47 47 34 30 22 8
211 240 243 200 164 150 202 250 134 152 178 187 180 168 163 152 139 120 103 96 93 92 91 83 82 85 87 86 83 78 71 66 61 56 55 55 60 66 71 67 60 54 51 45 47 45 36 15 354
223 223 244 230 176 174 207 244 173 184 197 202 185 175 171 164 149 125 112 109 112 112 113 109 107 106 104 98 92 83 72 65 60 55 53 53 56 59 66 66 57 52 51 41 36 47 42 17 344
282 309 301 300 117 184 229 246 223 186 200 210 195 180 177 163 133 134 136 142 133 130 129 130 128 130 124 113 100 91 80 72 65 58 52 52 55 57 61 64 58 54 52 43 33 35 43 23 359
251 265 270 281 142 188 262 264 254 193 200 204 200 186 175 155 146 150 151 154 146 136 130 129 125 111 92 89 90 93 100 86 77 64 55 51 52 56 65 62 60 56 56 47 36 33 40 38 26
243 240 248 257 180 198 269 273 242 232 206 202 204 188 174 166 163 162 161 155 142 135 131 123 114 106 106 109 109 111 102 93 76 63 59 49 55 60 64 63 64 58 57 54 42 34 45 44 27
246 238 236 258 280 251 196 269 237 228 211 204 201 192 175 162 159 161 161 152 141 133 124 117 112 112 122 130 132 129 118 112 103 99 85 65 56 60 62 64 64 62 57 55 49 41 40 51 36
215 37 355 242 257 270 259 272 251 221 225 214 202 195 179 161 157 159 158 147 137 135 130 122 116 116 117 112 111 111 111 112 112 106 95 81 65 61 63 64 66 64 59 57 53 46 43 45 50
127 102 76 285 253 255 222 240 260 203 214 211 201 190 177 159 154 151 143 136 135 135 133 129 124 118 114 112 112 121 126 128 126 121 112 98 85 72 68 69 67 67 63 57 54 53 50 43 43
144 151 202 234 225 243 200 223 252 211 197 204 188 177 169 160 158 156 153 154 152 152 148 141 134 127 122 118 118 124 127 128 130 131 125 120 108 94 82 79 74 70 68 64 59 59 52 43 40
189 180 182 212 230 253 220 232 249 92 36 26 137 155 159 163 165 163 165 163 159 157 154 148 142 137 131 126 124 124 124 123 125 126 125 121 119 115 107 96 88 79 69 64 61 63 55 43 34
169 215 218 239 269 279 251 251 242 75 229 201 163 162 170 171 170 167 167 165 161 160 160 153 148 144 139 134 128 125 123 122 124 121 116 116 121 123 116 108 101 93 82 69 69 67 55 36 31
216 172 160 194 216 247 255 232 226 201 219 202 187 181 178 174 173 171 170 167 161 160 156 150 150 148 143 139 139 136 131 130 130 126 127 129 131 128 126 119 114 106 94 77 71 71 50 33 15
184 195 191 194 197 212 262 251 219 193 198 193 194 188 182 180 179 176 171 164 157 158 158 154 154 149 147 147 143 139 139 138 135 135 139 139 135 135 135 133 127 121 112 94 82 74 50 15 339
200 192 185 188 218 217 243 260 334 23 184 183 188 187 183 179 177 173 167 163 164 167 167 165 162 159 159 153 148 148 146 146 146 148 147 143 142 143 144 143 143 145 139 131 133 153 229 281 293